#timestamp,LO_Frequency,Hit,StdDev 
1581865215.5,286047000.4,N
1581865235.3,286046999.0,N
1581865255.1,286046998.3,N
1581865275.9,286047000.7,N
1581865295.7,286046999.5,N
1581865315.5,286046997.5,N
1581865335.4,286046998.0,N
1581865355.2,286046996.7,N
1581865375.1,286047001.0,N
1581865376.0,286047001.0,N
1581865395.8,286047000.3,N
1581865415.6,286047000.1,N
1581865435.5,286047003.5,N
1581865455.3,286047001.7,N
1581865475.1,286047002.2,N
1581865495.9,286047002.1,N
1581865515.7,286047000.4,N
1581865535.6,286047002.1,N
1581865555.4,286047002.8,N
1581865575.2,286047002.1,N
1581865595.1,286047000.5,N
1581865596.0,286047000.5,N
1581865615.8,286047000.2,N
1581865635.6,286047000.5,N
1581865655.5,286047002.0,N
1581865675.3,286047004.4,N
1581865695.2,286047006.0,Y
1581865715.9,286047004.4,P
1581865735.7,286047002.8,N
1581865755.6,286047001.3,N
1581865775.4,286047002.8,N
1581865795.2,286047000.6,N
1581865815.1,286046998.9,N
1581865816.0,286046998.9,N
1581865835.8,286046996.5,N
1581865855.7,286046996.5,N
1581865875.5,286047001.0,N
1581865895.3,286047000.2,N
1581865915.2,286046998.3,N
1581865935.0,286047001.0,N
1581865935.9,286047001.0,N
1581865955.8,286046998.5,N
1581865975.6,286047000.7,N
1581865995.4,286047001.1,N
1581866015.3,286047001.1,N
1581866035.1,286046998.3,N
1581866055.8,286046998.8,N
1581866105.7,286047000.9,E
1581866115.6,286047001.1,N
1581866135.5,286047000.4,P
1581866155.3,286047002.8,P
1581866175.2,286047002.7,N
1581866195.9,286047000.3,N
1581866215.7,286047002.8,N
1581866235.6,286047002.8,N
1581866255.4,286046998.2,N
1581866275.2,286046999.2,N
1581866295.1,286046998.5,N
1581866296.0,286046998.5,N
1581866315.8,286046999.1,N
1581866335.7,286046997.5,N
1581866355.5,286046995.2,N
1581866375.3,286046993.6,N
1581866395.2,286046994.8,N
1581866415.0,286046992.4,N
1581866415.9,286046992.4,N
1581866435.8,286046991.7,N
1581866455.6,286046994.6,N
1581866475.4,286046992.1,N
1581866495.3,286046990.5,N
1581866515.1,286046992.7,N
1581866535.8,286046990.3,N
1581866555.7,286046991.9,N
1581866575.5,286046993.8,N
1581866595.4,286046993.4,N
1581866615.2,286046995.7,N
1581866635.0,286046993.7,N
1581866635.9,286046993.7,N
1581866655.8,286046993.5,N
1581866675.6,286046992.6,N
1581866695.5,286046992.0,N
1581866715.3,286046993.4,N
1581866735.1,286046994.4,N
1581866755.9,286046994.6,N
1581866775.7,286046994.3,N
1581866795.5,286046992.8,N
1581866815.4,286046991.2,Y
1581866835.2,286046996.3,P
1581866855.1,286046993.8,P
1581866856.0,286046993.8,P
1581866875.8,286046993.9,Y
1581866895.6,286047001.0,P
1581866915.5,286047000.3,N
1581866935.3,286046998.6,N
1581866955.2,286046999.2,N
1581866975.9,286046997.0,N
1581867025.8,286046997.7,E
1581867035.7,286046999.5,N
1581867055.5,286046998.5,P
1581867075.4,286046998.3,P
1581867095.2,286046998.4,Y
1581867115.0,286047001.9,P
1581867115.9,286047001.9,N
1581867135.8,286047002.2,N
1581867155.6,286047001.7,N
1581867175.5,286047001.6,N
1581867195.3,286047000.1,N
1581867215.1,286047000.1,N
1581867235.9,286046999.0,N
1581867255.7,286046998.9,N
1581867275.5,286047000.7,N
1581867295.4,286047002.4,N
1581867315.2,286047000.9,N
1581867335.0,286046999.7,N
1581867336.0,286046999.7,N
1581867355.8,286047000.1,N
1581867375.6,286047002.5,N
1581867395.5,286047000.3,N
1581867415.3,286046999.2,N
1581867435.1,286046999.6,N
1581867455.9,286046995.3,Y
1581867475.7,286046996.1,P
1581867495.6,286046995.1,N
1581867515.4,286046994.9,N
1581867535.2,286046997.2,N
1581867555.1,286046999.2,N
1581867556.0,286046999.2,N
1581867575.8,286046998.3,N
1581867595.6,286046999.8,N
1581867615.5,286047000.1,N
1581867635.3,286047000.1,N
1581867655.2,286047000.2,N
1581867675.9,286047000.6,N
1581867695.7,286046998.6,N
1581867715.6,286046998.0,N
1581867735.4,286046995.7,N
1581867755.2,286046994.2,Y
1581867775.1,286046995.8,P
1581867776.0,286046995.8,P
1581867795.8,286046996.0,P
1581867815.7,286046993.7,Y
1581867835.5,286046998.4,P
1581867855.3,286046998.2,N
1581867875.2,286047000.4,N
1581867895.0,286047001.3,N
1581867895.9,286047001.3,N
1581867915.8,286047003.0,N
1581867935.6,286047004.1,N
1581867955.4,286047003.3,N
1581867975.3,286047005.9,N
1581867995.1,286047005.1,N
1581868015.8,286047004.7,N
1581868035.7,286047007.4,N
1581868055.5,286047005.0,N
1581868075.4,286047004.5,N
1581868095.2,286047004.8,N
1581868115.0,286047007.4,N
1581868115.9,286047007.4,N
1581868135.8,286047006.4,N
1581868155.6,286047006.8,N
1581868175.5,286047008.7,N
1581868195.3,286047008.5,N
1581868215.1,286047007.7,N
1581868235.9,286047008.8,N
1581868255.7,286047008.8,N
1581868275.5,286047007.3,N
1581868295.4,286047007.4,N
1581868315.2,286047007.4,N
1581868335.1,286047006.1,N
1581868336.0,286047006.1,N
1581868355.8,286047007.6,N
1581868375.6,286047006.8,N
1581868395.5,286047007.1,N
1581868415.3,286047008.7,Y
1581868435.2,286047003.6,P
1581868455.9,286047005.5,P
1581868475.7,286047007.6,P
1581868495.6,286047003.7,N
1581868515.4,286047004.3,N
1581868535.3,286047006.0,Y
1581868555.1,286047002.7,P
1581868556.0,286047002.7,N
1581868575.8,286047001.0,N
1581868595.7,286046998.4,N
1581868615.5,286046998.2,N
1581868635.3,286046998.6,N
1581868655.2,286046997.2,N
1581868675.0,286046998.3,N
1581868675.9,286046998.3,N
1581868695.8,286046999.6,N
1581868715.6,286046998.7,N
1581868735.4,286046996.6,N
1581868755.3,286046998.4,N
1581868775.1,286046998.2,N
1581868795.9,286046999.8,N
